Location: Sortland
(68.7020°N, 15.4240°E)
Time: 13:32:05
(UTC+01:00)

Envisat - Pass Details

Date: 28 October 2019
Orbit: 764 x 766 km, 98.1° (Epoch: 22 November)

Event Time Altitude Azimuth Distance (km) Brightness Sun altitude
Rises 16:58:29 0° 153° (SSE) 3,234 6.1 -8.4°
Reaches altitude 10° 17:00:47 10° 153° (SSE) 2,310 5.4 -8.6°
Maximum altitude 17:05:53 87° 67° (ENE) 778 3.0 -9.0°
Drops below altitude 10° 17:11:02 10° 337° (NNW) 2,320 5.6 -9.5°
Sets 17:13:20 0° 337° (NNW) 3,250 6.4 -9.7°
